Location: Hermaringen
(48.5952°N, 10.2585°E)
Time: 22:03:38
(UTC+00:00)

Cosmos 2016 Rocket - Pass Details

Date: 18 November 2025
Orbit: 947 x 999 km, 83.0° (Epoch: 05 December)

Event Time Altitude Azimuth Distance (km) Brightness Sun altitude
Rises 16:23:06 0° 194° (SSW) 3,676 7.5 -7.9°
Reaches altitude 10° 16:25:36 10° 197° (SSW) 2,739 6.9 -8.3°
Maximum altitude 16:31:53 71° 281° (W) 1,049 4.4 -9.3°
Drops below altitude 10° 16:38:16 10° 6° (N) 2,779 6.2 -10.3°
Sets 16:40:50 0° 8° (N) 3,734 6.8 -10.7°
